Regional Weather Roundup
Issued by NWS

Home | Current Version | Previous Version | Text Only | Print | Product List | Glossary Off
Versions: 1 2 3 4 5 6 7 8 9 10 11 12 13 14 15 16 17 18 19 20 21 22 23 24 25 26 27 28 29 30 31 32 33 34 35 36 37 38 39 40 41 42 43 44 45 46 47 48 49 50

000
ASUS45 KTFX 210110
RWRMT
MONTANA REGIONAL WEATHER ROUNDUP
NATIONAL WEATHER SERVICE GREAT FALLS MT
700 PM MDT FRI OCT 20 2017

NOTE: "FAIR" INDICATES FEW OR NO CLOUDS BELOW 12000 FEET WITH NO
SIGNIFICANT WEATHER AND/OR OBSTRUCTIONS TO VISIBILITY.

MTZ001>007-043-210200-
WEST OF THE DIVIDE

CITY           SKY/WX    TMP DP  RH WIND       PRES   REMARKS
KALISPELL      CLOUDY    45  34  65 SW8       29.67R
MISSOULA       CLOUDY    41  37  86 NE3       29.75R
BUTTE          CLOUDY    35  31  85 NW5       29.72R
MULLAN PASS    CLOUDY    29  26  89 W8        29.72R WCI  21
ANACONDA         N/A     37  27  65 W17       29.73R WCI  28
DEER LODGE       N/A     36  34  93 N3        29.73R
EUREKA           N/A     46  30  53 MISG      29.64R
HAMILTON         N/A     39  30  70 S10       29.78R
LIBBY            N/A     43  37  81 CALM      29.69R
$$

MTZ008-052>055-210200-
SOUTHWEST MONTANA

CITY           SKY/WX    TMP DP  RH WIND       PRES   REMARKS
BOZEMAN        CLOUDY    39  35  86 NE7       29.70R
DILLON         CLOUDY    39  22  50 SW20      29.72R WCI  29
W YELLOWSTONE  CLOUDY    30  27  86 SW7       29.73R WCI  23
ENNIS          CLOUDY    36  30  80 CALM      29.79R
THREE FORKS      N/A     43  31  63 SW8       29.72R
$$

MTZ009-010-012-014-046-048-049-054-210200-
EAST SLOPES AND CENTRAL MONTANA

CITY           SKY/WX    TMP DP  RH WIND       PRES   REMARKS
CUT BANK       CLOUDY    43  29  57 W26G38    29.50R
GREAT FALLS    CLOUDY    42  32  67 W12       29.56R
MALMSTROM AFB  CLOUDY    43  36  77 W8        29.57R
HELENA         MOCLDY    43  30  60 W17G32    29.66R
BOWMANS CRNR   CLOUDY    42  24  50 W15       29.57R
CHOTEAU          N/A     46  23  39 W18G33    29.56R
FAIRFIELD      MOCLDY    46  25  44 SW14      29.54R
POWER          MOCLDY    40  34  81 W10       29.53R
RAYNESFORD     MOCLDY    41  31  67 SW24G30   29.56R
ULM            CLOUDY    44  30  57 W17G24    29.58R
$$

MTZ011-013-016-021-045-047-050-051-210200-
NORTH CENTRAL MONTANA

CITY           SKY/WX    TMP DP  RH WIND       PRES   REMARKS
HAVRE          CLOUDY    51  35  54 W30G43    29.43R
LEWISTOWN      CLOUDY    42  34  73 NW17G24   29.52R
N BAR RANCH    MOCLDY    41  34  75 NW25G44   29.48R
CHINOOK          N/A     54  34  47 SW25G32   29.38R
DENTON         MOCLDY    43  34  70 MISG      29.46R
GEYSER         MOCLDY    42  31  65 W36G49    29.50R
GRASS RANGE    MOCLDY    42  35  79 W22G44    29.45R
JUDITH GAP     MOCLDY    43  24  46 NW25G37   29.49R
WINIFRED       LGT RAIN  42  36  77 W24G32    29.50R
$$

MTZ017>020-022>027-061-062-210200-
NORTHEAST MONTANA

CITY           SKY/WX    TMP DP  RH WIND       PRES   REMARKS
GLASGOW        PTCLDY    61  31  32 W16       29.23R
JORDAN           N/A     59  37  44 W20G37    29.32R
SIDNEY         CLOUDY    59  37  44 N5        29.17S
WOLF POINT     CLOUDY    60  33  36 SW6       29.18R
MALTA          CLEAR     57  34  41 W21G29    29.30R
PLENTYWOOD       N/A     68  30  24 CALM      29.18F
POPLAR           N/A     66  30  26 S6        29.17S VSB 1/2
$$

MTZ028>42-056>058-210200-
SOUTHCENTRAL AND SOUTHEAST MONTANA

CITY           SKY/WX    TMP DP  RH WIND       PRES   REMARKS
BAKER          CLOUDY    59  36  42 E5        29.23S
BILLINGS       CLOUDY    49  30  48 W38G49    29.45R
LIVINGSTON     CLOUDY    39  33  79 SW28G39   29.62F WCI  28
MILES CITY     PTCLDY    69  35  28 W16G24    29.25R
BIG TIMBER     CLOUDY    37  34  87 W26G38    29.62R WCI  26
FORSYTH          N/A     64  39  39 W14G20    29.33R
HARLOWTON      MOCLDY    41  28  59 W32G40    29.54R
LAUREL           N/A     46  30  53 W43G53    29.46R
$$

REGIONAL REPORTS...DAKOTAS

CITY           SKY/WX    TMP DP  RH WIND       PRES   REMARKS
WILLISTON        N/A    N/A N/A N/A MISG      29.18S
MINOT          CLEAR     62  45  53 E6        29.21F
DICKINSON      PTCLDY    60  36  40 S10       29.19F
BEACH            N/A     55  36  47 S5        29.24R
CROSBY           N/A     55  36  47 S6        29.19F
TIOGA            N/A     54  36  50 E5        29.23S
WATFORD CITY     N/A     59  34  38 CALM      29.18F
BISMARCK       CLEAR     63  50  62 SE6       29.27F
GRAND FORKS    MOCLDY    72  55  55 S20G30    29.36S
FARGO          PTCLDY    71  54  54 S20G31    29.43S
BUFFALO SD       N/A     68  35  29 S12       29.21R
RAPID CITY     CLOUDY    64  36  35 VRB5      29.34S
$$

REGIONAL REPORTS...WYOMING/IDAHO/WASHINGTON

CITY           SKY/WX    TMP DP  RH WIND       PRES   REMARKS
GILLETTE       CLOUDY    66  24  20 SW14      29.37R
SHERIDAN       CLOUDY    57  39  51 NW10      29.38R
BUFFALO WY     CLOUDY    60  30  32 SW9G21    29.43R
CODY           CLOUDY    46  20  35 VRB6      29.57R
YELLOWSTONE LA   N/A     27  25  92 VRB3      29.71R
IDAHO FALLS    CLOUDY    43  28  55 SW21G30   29.80R
SALMON         CLOUDY    41  30  65 SW7       29.81R
BOISE          CLOUDY    49  32  52 W13       29.90R
SPOKANE        MOCLDY    49  36  61 SW18      29.74R
$$

REGIONAL REPORTS...ALBERTA

CITY           SKY/WX    TMP DP  RH WIND       PRES   REMARKS
EDMONTON       PTCLDY    46  34  61 W8        29.42R
CALGARY        CLOUDY    43  32  65 NW7       29.46R
LETHBRIDGE     LGT RAIN  43  41  93 W16G22    29.50R
MEDICINE HAT   LGT RAIN  50  37  62 W16       29.36R
$$

REGIONAL REPORTS...SASKATCHEWAN

CITY           SKY/WX    TMP DP  RH WIND       PRES   REMARKS
SWIFT CURRENT  CLOUDY    50  34  53 W15G22    29.22R
REGINA         MOCLDY    59  34  38 E7        29.16S
SASKATOON      CLOUDY    43  34  70 NW10      29.23R
$$



USA.gov is the U.S. government's official web portal to all federal, state and local government web resources and services.